Satellite-Ground Cal/Val Site Overpasses Predictions

Prediction of Satellite NPP Overpassing Cal/Val Site: Antarctic Dome C

Ground Cal/Val Site Location: Latitude: -75.10, Longitude: 123.35; Satellite-Ground Site NADIR distance within 100 km.

Table of predicted overpasses for the next 14.0 days since TLE Epoch: 7/26/2018
Interval Starting Time Ending Time Minimum Distance Time Minimum Distance (km)
1 07/27/2018 14:54:48 07/27/2018 14:55:16 07/27/2018 14:55:02 20.00
2 07/28/2018 14:36:07 07/28/2018 14:36:21 07/28/2018 14:36:14 86.77
3 07/29/2018 07:37:39 07/29/2018 07:38:07 07/29/2018 07:37:53 32.67
4 07/30/2018 07:18:55 07/30/2018 07:19:13 07/30/2018 07:19:04 77.45
5 08/01/2018 15:01:11 08/01/2018 15:01:35 08/01/2018 15:01:23 57.31
6 08/02/2018 14:42:21 08/02/2018 14:42:46 08/02/2018 14:42:33 51.74
7 08/03/2018 07:44:02 08/03/2018 07:44:24 08/03/2018 07:44:13 68.15
8 08/04/2018 07:25:11 08/04/2018 07:25:37 08/04/2018 07:25:24 39.79
9 08/06/2018 15:07:38 08/06/2018 15:07:47 08/06/2018 15:07:42 95.31
10 08/07/2018 14:48:39 08/07/2018 14:49:08 08/07/2018 14:48:54 15.91


NCC Satellite Cal/Val Overpasses Prediction Service
